Regional Weather Roundup
Issued by NWS

Home | Current Version | Previous Version | Text Only | Print | Product List | Glossary Off
Versions: 1 2 3 4 5 6 7 8 9 10 11 12 13 14 15 16 17 18 19 20 21 22 23 24 25 26 27 28 29 30 31 32 33 34 35 36 37 38 39 40 41 42 43 44 45 46 47 48 49 50

000
ASUS43 KLOT 241809
RWRIL

ILLINOIS REGIONAL WEATHER ROUNDUP
NATIONAL WEATHER SERVICE CHICAGO/ROMEOVILLE IL
100 PM CDT SAT JUN 24 2017

NOTE: "FAIR" INDICATES FEW OR NO CLOUDS BELOW 12,000 FEET WITH NO
SIGNIFICANT WEATHER AND/OR OBSTRUCTIONS TO VISIBILITY.

* THESE STATIONS ARE NOT UNDER NWS QUALITY CONTROL. THEY ALSO MAY NOT
  REPORT WEATHER SUCH AS PRECIPITATION OR FOG.

ILZ001-002-007-009-015-016-024-241900-
NORTHWEST ILLINOIS

CITY           SKY/WX    TMP DP  RH WIND       PRES   REMARKS
MOLINE         SUNNY     72  41  32 W18G26    30.09S
6HR MIN TEMP:  62; 6HR MAX TEMP:  72;

STERLING*      MOSUNNY   71  49  45 W18G25    30.06R
SAVANNA*       MOSUNNY   70  45  41 NW16G28   30.06S
$$

ILZ003-004-008-010-011-017-018-241900-
NORTH CENTRAL ILLINOIS

CITY           SKY/WX    TMP DP  RH WIND       PRES   REMARKS
ROCKFORD       PTSUNNY   71  48  43 W15G25    30.03R
6HR MIN TEMP:  63; 6HR MAX TEMP:  73;

FREEPORT*      MOSUNNY   68  45  43 W15       30.05S
ROCHELLE*      MOSUNNY   70  47  44 W20G25    30.05R
DE KALB*       PTSUNNY   71  48  44 W16G26    30.04R
PERU*          PTSUNNY   70  48  45 W18G24    30.06S
$$

ILZ005-006-012>014-019>023-241900-
NORTHEAST ILLINOIS

CITY           SKY/WX    TMP DP  RH WIND       PRES   REMARKS
CHICAGO-OHARE  PTSUNNY   73  49  42 W12G22    29.99R
6HR MIN TEMP:  63; 6HR MAX TEMP:  73;

CHICAGO-MIDWAY PTSUNNY   73  49  42 W20G26    29.99S
6HR MIN TEMP:  65; 6HR MAX TEMP:  73;

AURORA         MOSUNNY   71  50  47 W20G26    30.03R
6HR MIN TEMP:  61; 6HR MAX TEMP:  72;

LANSING*       MOSUNNY   74  48  40 W20G26    30.00S
JOLIET*        MOSUNNY   74  50  42 W12G20    30.02S
WAUKEGAN       PTSUNNY   69  48  47 W9G17     29.98R
6HR MIN TEMP:  63; 6HR MAX TEMP:  71;

DUPAGE AIRPORT PTSUNNY   69  50  50 W15       30.01R
6HR MIN TEMP:  62; 6HR MAX TEMP:  71;

WHEELING       MOSUNNY   73  49  42 W14G22    30.00R
6HR MIN TEMP:  63; 6HR MAX TEMP:  73;

MORRIS*        MOSUNNY   73  49  43 W21G28    30.01F
ROMEOVILLE*    MOSUNNY   73  47  39 W15G25    30.01F
NORTHERLY ISL    N/A     71  47  42 W14         N/A
$$

LMZ740>746-241900-
SOUTHERN LAKE MICHIGAN

STATION/POSITION SKY/WX   TEMP    WIND        PRES    VSBY  WAVE
                          AIR SEA DIR/SP/G                  HT/PER
                          (F)     (DEG/KT/KT) (MB)    (MI)  (FT/S)
SOUTHERN BUOY              62 62  280/  6/  8 1014.4          2/ 4
WILMETTE HARBOR            67 65  290/ 14/ 19   N/A           2/ 2
HARRISON CRIB              70     280/ 15/ 17   N/A
BURNHAM HARBOR             72                   N/A
CALUMET HARBOR             72     250/  7/ 14 1014.9R
BURNS HARBOR               69     280/ 11/ 13 1015.6S
MICHIGAN CITY              67     260/ 11/ 12   N/A
MICHIGAN CITY 6N           67 68  280/  8/ 10   N/A           2/ 4
ST. JOSEPH                 65 68  300/  8/ 10 1015.5          3/ 5
$$

ILZ025>027-034>036-040-047-049-050-058-095>099-241900-
WEST-CENTRAL ILLINOIS

CITY           SKY/WX    TMP DP  RH WIND       PRES   REMARKS
QUINCY         SUNNY     73  45  36 NW18G24   30.14F
GALESBURG*     MOSUNNY   70  46  40 W17G25    30.12S
MACOMB*        SUNNY     72  45  38 W21G28    30.14S
JACKSONVILLE*  SUNNY     74  46  37 NW16G26   30.12R
PITTSFIELD*    SUNNY     74  47  38 W15G21    30.14F
$$

ILZ028>032-037-038-041>044-048-051>054-059>061-241900-
CENTRAL ILLINOIS

CITY           SKY/WX    TMP DP  RH WIND       PRES   REMARKS
PONTIAC        MOSUNNY   72  47  39 W23G30    30.06S
BLOOMINGTON    MOSUNNY   72  47  40 NW13G23   30.08S
DECATUR        MOSUNNY   73  48  41 W13G21    30.08S
PEORIA         MOSUNNY   73  46  38 W13G28    30.08F
6HR MIN TEMP:  61; 6HR MAX TEMP:  73;

LACON*         MOSUNNY   72  47  41 W10G16    30.06F
LINCOLN*       SUNNY     74  49  40 W8G17     30.08S
SPRINGFIELD    SUNNY     76  49  38 NW16G24   30.09F
6HR MIN TEMP:  63; 6HR MAX TEMP:  76;

TAYLORVILLE    SUNNY     73  49  43 W12       30.10S
6HR MIN TEMP:  62; 6HR MAX TEMP:  73;

$$

ILZ033-039-045-046-055>057-062-063-241900-
EAST-CENTRAL ILLINOIS

CITY           SKY/WX    TMP DP  RH WIND       PRES   REMARKS
CHAMPAIGN      PTSUNNY   74  50  42 W15G23    30.06S
RANTOUL*       MOSUNNY   74  51  44 NW16G26   30.06R
MATTOON        MOSUNNY   73  53  49 W14G28    30.07S
PARIS*         MOSUNNY   73  57  57 W16       30.07R
$$

ILZ079-100>102-241900-
SOUTHWEST ILLINOIS

CITY           SKY/WX    TMP DP  RH WIND       PRES   REMARKS
ALTON          MOSUNNY   73  52  46 NW10      30.13S
BELLEVILLE     MOSUNNY   76  49  38 W18G24    30.13F
CAHOKIA*       MOSUNNY   78  44  29 NW12G17   30.13F
SPARTA*        SUNNY     76  46  33 NW14G20   30.14R
$$

ILZ064>066-069>071-074>076-080>082-084>086-088>090-092>094-241900-
SOUTH-CENTRAL ILLINOIS

CITY           SKY/WX    TMP DP  RH WIND       PRES   REMARKS
CARBONDALE     PTSUNNY   77  54  44 NW9       30.11S
6HR MIN TEMP:  65; 6HR MAX TEMP:  77;

CAIRO*         MOSUNNY   78  59  52 NW12      30.11S
EFFINGHAM*     MOSUNNY   75  54  47 W15G21    30.11R
MARION         PTSUNNY   77  55  47 W7        30.12S
MT. VERNON     MOSUNNY   76  52  43 W10G18    30.11R
CENTRALIA*     SUNNY     77  53  44 NW13G21   30.10S
SALEM*         MOSUNNY   76  51  41 W13G22    30.11S
METROPOLIS*    MOSUNNY   78  59  52 NW7G16    30.10F
$$

ILZ067-068-072-073-078-083-087-091-241900-
SOUTHEAST ILLINOIS

CITY           SKY/WX    TMP DP  RH WIND       PRES   REMARKS
LAWRENCEVILLE  MOSUNNY   76  57  51 W13       30.07S
FLORA*           N/A     78  53  42 W15G22    30.09S
FAIRFIELD*     MOSUNNY   76  54  45 W3        30.08S
HARRISBURG*    MOSUNNY   77  58  53 W10G20    30.10S
ROBINSON*      PTSUNNY   73  58  57 NW8G20    30.08R
CARMI*         MOSUNNY   78  59  52 W15       30.08S
$$

ABBREVIATIONS USED IN REMARKS
   TC - TEMPERATURE IN CELSIUS
  WCI - WIND CHILL INDEX
   HX - HEAT INDEX
  VSB - VISIBILITY
$$





USA.gov is the U.S. government's official web portal to all federal, state and local government web resources and services.